TITAN 3C TRANSTAGE DEB, 26048

Orbit data source: Space-Track

TITAN 3C TRANSTAGE DEB, 26048 is space debris in HEO originally from a launch on Tue, 21 Dec 1965 UTC launched from the Air Force Eastern Test Range (AFETR). Debris objects in space refer to the collection of defunct objects orbiting the Earth. Examples of debris include non-operational satellites, rocket bodies, and fragments generated from explosions, collisions, or faulty payload assembly.

Loading next visibility...
Identifier
26048, 1965-108AG
Orbit
HEO
Last TLE update
19 hours ago
Origin
Manufacturer
Unknown
Mission
Spacecraft
Bus & Motor
Unknown
Mass
Unknown
Launch date (UTC)
1965-12-21 (60 years ago)
Launch vehicle
Unknown
Launch site
Air Force Eastern Test Range (AFETR)
Object type
Payload
Rocket body
Debris
Shape & HBR
Unknown
Radar Cross Section
Medium (>0.1 m² and <1 m²)

Expand to show TLE details & history

TLE from 19 hours ago
0 TITAN 3C TRANSTAGE DEB
1 26048U 65108AG  25181.49297771  .00005842  00000-0  23159-2 0  9994
2 26048  26.5196 306.7261 6268308 154.7337 257.8739  3.61690268320398
Epoch: 2025-06-30T11:49Z
TLE epoch observation values (Epoch: 2025-06-30T11:49:53.274Z)
Latitude
0.00007°
Longitude
-149.56007°
Altitude
18,740.192 km
Speed
3.083 km/s
True Right ascension
20h 26m 51s
True Declination
0° 00' 00"
Sunlit
Object was in daylight at epoch
Visualization orbit readout
Latitude
-4.26413°
Longitude
-158.66189°
Altitude
21,243.169 km
Speed
2.575 km/s
Apparent Right ascension
20h 03m 17s
Apparent Declination
-14° 59' 45"
Sunlit
Object is in daylight
Visualization observer readout
Local Sidereal Time
18:49:52
Azimuth
158.863° S
Elevation
32.49°
Doppler factor
1
Orbital elements
Apogee altitude
22,792.202 km
Perigee altitude
313.076 km
Semi-major axis
17,930.776 km
Eccentricity
0.62683
Inclination
26.5196°
RAAN
306.7261°
Arg. of periapsis
154.7337°
True anomaly
Unknown
Mean anomaly
257.8739°
Eccentric anomaly
Unknown
Mean motion
0.90395 °/min
Orbital period
398.25 mins
BSTAR
0.0023159
Loading maneuver chart data...
Loading SW <> Apogee altitude chart data...

TITAN 3C TRANSTAGE DEB Visibility forecast

Observer location: undefined°, undefined°

Span
Click to sort rows by Start time (UTC) header in descending order
Start Az.
Max El. time (UTC)
Max El. Az.
Max El.
End time (UTC)
End Az.
116 mins2025-07-01 07:11:57.493Z158.874° S2025-07-01 08:19:57.493Z144.157° SSE31.722°2025-07-01 09:07:57.493Z96.238° ESE
24 mins2025-07-01 15:42:57.493Z263.922° W2025-07-01 16:02:57.493Z207.002° SW28.352°2025-07-01 16:06:57.493Z154.319° SSE
|